Home   Weather   Porto   Past weeks

Flag for Portugal Past Weather in Porto, Portugal — Yesterday and Last 2 Weeks

61 °F


Feels Like: 61 °F
Forecast: 56 / 67 °F
Wind: No wind

Location: Porto / Pedras Rubras

Current Time: Oct 20, 2016 at 8:46:03 PM

Latest Report: Oct 20, 2016 at 8:00 PM

Visibility: 3 mi

Pressure: 29.89 "Hg

Humidity: 100%

Dew Point: 61 °F

Location of PortoLocation

Past Weather in Porto — Graph


Porto Temperature Yesterday

Maximum temperature yesterday: 77 °F (at 3:30 PM)
Minimum temperature yesterday: 63 °F (at 2:30 AM)
Average temperature yesterday: 67 °F

High & Low Weather Summary for the Past Weeks

High77 °F (Oct 19, 3:30 PM)100% (Oct 6, 1:00 AM)30.27 "Hg (Oct 6, 1:00 AM)
Low48 °F (Oct 14, 7:00 AM)52% (Oct 14, 12:00 PM)29.56 "Hg (Oct 12, 4:00 PM)
Average61 °F92%29.96 "Hg
* Reported Oct 5 7:00 PM — Oct 20 7:30 PM, Porto, Weather by CustomWeather, © 2016

Note: Actual official high and low records may vary slightly from our data, if they occured in-between our weather recording intervals... More about our weather records


Porto Weather History for the Previous 24 Hours

Scroll right to see more
Time TempWeatherWind HumidityBarometerVisibility
7:30 PM
Thu, Oct 20
61 °FFog.2 mph100%29.89 "Hg3 mi
7:00 PM63 °FFog.No wind94%29.89 "Hg2 mi
6:30 PM63 °FLow clouds.No wind94%29.89 "Hg1 mi
6:00 PM63 °FMild.No wind94%29.89 "Hg2 mi
5:30 PM63 °FPartly sunny.3 mph94%29.89 "Hg1 mi
5:00 PM63 °FFog.3 mph100%29.89 "Hg1 mi
4:30 PM64 °FFog.3 mph94%29.89 "Hg2 mi
4:00 PM64 °FFog.6 mph94%29.89 "Hg2 mi
3:30 PM66 °FScattered clouds.6 mph88%29.92 "Hg4 mi
3:00 PM68 °FScattered clouds.6 mph83%29.92 "Hg5 mi
2:30 PM68 °FPassing clouds.6 mph83%29.92 "Hg5 mi
2:00 PM68 °FScattered clouds.5 mph83%29.92 "Hg5 mi
1:30 PM70 °FScattered clouds.5 mph78%29.95 "Hg6 mi
1:00 PM66 °FPartly sunny.5 mph88%29.95 "Hg4 mi
12:30 PM66 °FBroken clouds.5 mph88%29.95 "Hg5 mi
12:00 PM66 °FBroken clouds.7 mph88%29.95 "HgN/A
11:30 AM66 °FBroken clouds.2 mph88%29.95 "HgN/A
11:00 AM70 °FScattered clouds.No wind83%29.95 "HgN/A
10:30 AM68 °FPartly sunny.2 mph83%29.95 "HgN/A
10:00 AM66 °FPartly sunny.3 mph88%29.95 "HgN/A
9:30 AM64 °FPartly sunny.2 mph94%29.95 "HgN/A
9:00 AM64 °FPartly sunny.3 mph94%29.95 "HgN/A
8:30 AM63 °FPartly sunny.3 mph94%29.95 "HgN/A
8:00 AM63 °FBroken clouds.2 mph94%29.95 "HgN/A
7:30 AM63 °FPassing clouds.3 mph94%29.95 "HgN/A
7:00 AM63 °FPassing clouds.1 mph94%29.95 "HgN/A
6:30 AM63 °FPassing clouds.No wind94%29.95 "HgN/A
6:00 AM63 °FSprinkles. Passing clouds.No wind94%29.95 "HgN/A
5:30 AM63 °FPassing clouds.2 mph94%29.95 "HgN/A
5:00 AM63 °FPassing clouds.5 mph94%29.95 "HgN/A
4:30 AM63 °FPassing clouds.5 mph94%29.95 "HgN/A
4:00 AM63 °FPassing clouds.No wind94%29.95 "HgN/A
3:30 AM63 °FPassing clouds.No wind94%29.95 "HgN/A
3:00 AM63 °FPassing clouds.No wind94%29.98 "HgN/A
2:30 AM63 °FSprinkles. Passing clouds.1 mph94%29.98 "HgN/A
2:00 AM63 °FClear.No wind94%29.98 "Hg10 mi
1:30 AM61 °FClear.2 mph100%29.98 "Hg10 mi
1:00 AM61 °FClear.No wind94%29.98 "Hg10 mi
12:30 AM63 °FClear.1 mph94%30.01 "Hg10 mi
12:00 AM64 °FPassing clouds.3 mph88%30.01 "HgN/A
11:30 PM
Wed, Oct 19
64 °FClear.2 mph88%30.01 "Hg10 mi
11:00 PM64 °FPassing clouds.3 mph94%30.01 "HgN/A
10:30 PM64 °FPassing clouds.3 mph94%30.01 "HgN/A
10:00 PM64 °FClear.No wind94%30.01 "Hg10 mi
9:30 PM64 °FClear.1 mph94%30.01 "Hg6 mi
9:00 PM64 °FClear.1 mph94%30.01 "Hg10 mi
8:30 PM66 °FClear.No wind88%30.01 "Hg10 mi
8:00 PM66 °FClear.5 mph94%30.01 "Hg10 mi
Weather by CustomWeather, © 2016

See weather overviewHow to use our weather pages